Dades meteomassalio
Diari Summary for Maig 20, 2017 Units:  Metric    English   Both
« Previous Day
Next Day »
Diari Semanal Mensual Anual Personalitzat
  Maxima: Minima: Mijana:
Temperatura: -17.8 °C -14.1 °C -8.7 °C
Rosada: -17.8 °C -15.1 °C -14 °C
Humitat: Humidity % 30 % 57 %
Velocitat del vent: 0 km/h 0 km/h 6.4 km/h
Racha vent: 0 km/h - -
Vent:- - WSW
Pressio: 0 hPa 34577.8 hPa -
Pluja: 0 mm    
Historical Graphs
 
 
Tabular Data for Maig 20, 2017
Time Temperature Dew Point Pressure Wind Wind Speed Wind Gust Humidity Rainfall Rate (Hourly) solar Conditions
-17.8 °C -17.8 °C 0 hPa Calm     Humidity % 0 mm SolarRadiationWatts/m^2 W/m2 Conditions
00:03 -11.1 °C -13.7 °C 34611.7 hPa Calm     73 % 0 mm 0.0 W/m2 CLR
00:08 -11.1 °C -13.8 °C 34625.2 hPa Calm     72 % 0 mm 0.0 W/m2 CLR
00:13 -11.1 °C -13.7 °C 34625.2 hPa Calm     73 % 0 mm 0.0 W/m2 CLR
00:18 -11.2 °C -13.8 °C 34625.2 hPa Calm     73 % 0 mm 0.0 W/m2 CLR
00:23 -11.3 °C -13.8 °C 34625.2 hPa Calm     74 % 0 mm 0.0 W/m2 CLR
00:28 -11.4 °C -13.8 °C 34625.2 hPa Calm     75 % 0 mm 0.0 W/m2 CLR
00:33 -11.5 °C -13.8 °C 34625.2 hPa Calm     76 % 0 mm 0.0 W/m2 CLR
00:38 -11.6 °C -13.7 °C 34625.2 hPa Calm     77 % 0 mm 0.0 W/m2 CLR
00:43 -11.6 °C -13.8 °C 34625.2 hPa Calm     77 % 0 mm 0.0 W/m2 CLR
00:48 -11.6 °C -13.8 °C 34635.4 hPa Calm     77 % 0 mm 0.0 W/m2 CLR
00:53 -11.7 °C -13.8 °C 34635.4 hPa Calm     77 % 0 mm 0.0 W/m2 CLR
00:58 -11.7 °C -13.9 °C 34625.2 hPa Calm     77 % 0 mm 0.0 W/m2 CLR
01:03 -11.8 °C -13.9 °C 34635.4 hPa Calm     77 % 0 mm 0.0 W/m2 CLR
01:08 -11.8 °C -13.8 °C 34635.4 hPa Calm     78 % 0 mm 0.0 W/m2 CLR
01:13 -11.8 °C -13.8 °C 34635.4 hPa Calm     78 % 0 mm 0.0 W/m2 CLR
01:18 -11.8 °C -13.9 °C 34635.4 hPa Calm     78 % 0 mm 0.0 W/m2 CLR
01:23 -11.9 °C -13.9 °C 34635.4 hPa Calm     78 % 0 mm 0.0 W/m2 CLR
01:28 -11.9 °C -13.9 °C 34635.4 hPa Calm     78 % 0 mm 0.0 W/m2 CLR
01:34 -11.9 °C -13.9 °C 34635.4 hPa Calm     78 % 0 mm 0.0 W/m2 CLR
01:39 -12 °C -14.1 °C 34635.4 hPa Calm     78 % 0 mm 0.0 W/m2 CLR
01:44 -12.1 °C -14.1 °C 34635.4 hPa Calm     79 % 0 mm 0.0 W/m2 CLR
01:49 -12.2 °C -14 °C 34635.4 hPa Calm     80 % 0 mm 0.0 W/m2 CLR
01:54 -12.3 °C -14.1 °C 34635.4 hPa Calm     80 % 0 mm 0.0 W/m2 CLR
01:59 -12.2 °C -14.1 °C 34635.4 hPa Calm     80 % 0 mm 0.0 W/m2 CLR
02:04 -12.2 °C -14 °C 34635.4 hPa Calm     80 % 0 mm 0.0 W/m2 CLR
02:09 -12.2 °C -14.1 °C 34635.4 hPa Calm     80 % 0 mm 0.0 W/m2 CLR
02:14 -12.3 °C -14 °C 34635.4 hPa Calm     81 % 0 mm 0.0 W/m2 CLR
02:19 -12.3 °C -14.1 °C 34635.4 hPa Calm     81 % 0 mm 0.0 W/m2 CLR
02:24 -12.3 °C -14.1 °C 34635.4 hPa Calm     81 % 0 mm 0.0 W/m2 CLR
02:29 -12.4 °C -14.1 °C 34635.4 hPa Calm     81 % 0 mm 0.0 W/m2 CLR
02:34 -12.4 °C -14.1 °C 34635.4 hPa Calm     82 % 0 mm 0.0 W/m2 CLR
02:39 -12.6 °C -14.2 °C 34635.4 hPa Calm     82 % 0 mm 0.0 W/m2 CLR
02:44 -12.6 °C -14.2 °C 34635.4 hPa Calm     82 % 0 mm 0.0 W/m2 CLR
02:49 -12.6 °C -14.3 °C 34635.4 hPa Calm     81 % 0 mm 0.0 W/m2 CLR
02:54 -12.6 °C -14.2 °C 34635.4 hPa Calm     82 % 0 mm 0.0 W/m2 CLR
02:59 -12.6 °C -14.3 °C 34645.6 hPa Calm     81 % 0 mm 0.0 W/m2 CLR
03:04 -12.6 °C -14.3 °C 34645.6 hPa Calm     81 % 0 mm 0.0 W/m2 CLR
03:09 -12.7 °C -14.3 °C 34645.6 hPa Calm     82 % 0 mm 0.0 W/m2 CLR
03:14 -12.7 °C -14.3 °C 34645.6 hPa Calm     82 % 0 mm 0.0 W/m2 CLR
03:19 -12.7 °C -14.3 °C 34645.6 hPa Calm     82 % 0 mm 0.0 W/m2 CLR
03:24 -12.7 °C -14.5 °C 34645.6 hPa Calm     81 % 0 mm 0.0 W/m2 CLR
03:29 -12.8 °C -14.4 °C 34645.6 hPa Calm     82 % 0 mm 0.0 W/m2 CLR
03:34 -12.8 °C -14.4 °C 34645.6 hPa Calm     82 % 0 mm 0.0 W/m2 CLR
03:39 -12.7 °C -14.3 °C 34645.6 hPa Calm     82 % 0 mm 0.0 W/m2 CLR
03:44 -12.7 °C -14.4 °C 34645.6 hPa Calm     81 % 0 mm 0.0 W/m2 CLR
03:49 -12.7 °C -14.4 °C 34645.6 hPa Calm     81 % 0 mm 0.0 W/m2 CLR
03:54 -12.7 °C -14.4 °C 34645.6 hPa Calm     81 % 0 mm 0.0 W/m2 CLR
04:04 -12.8 °C -14.4 °C 34645.6 hPa Calm     82 % 0 mm 0.0 W/m2 CLR
04:09 -12.9 °C -14.4 °C 34645.6 hPa Calm     83 % 0 mm 0.0 W/m2 CLR
04:15 -13 °C -14.5 °C 34645.6 hPa Calm     83 % 0 mm 0.0 W/m2 CLR
04:20 -13.1 °C -14.5 °C 34645.6 hPa Calm     84 % 0 mm 0.0 W/m2 CLR
04:25 -13.1 °C -14.6 °C 34645.6 hPa Calm     84 % 0 mm 0.0 W/m2 CLR
04:30 -13.2 °C -14.5 °C 34659.1 hPa Calm     85 % 0 mm 0.0 W/m2 CLR
04:35 -13.2 °C -14.6 °C 34659.1 hPa Calm     85 % 0 mm 0.0 W/m2 CLR
04:40 -13.3 °C -14.6 °C 34659.1 hPa Calm     85 % 0 mm 0.0 W/m2 CLR
04:45 -13.3 °C -14.6 °C 34659.1 hPa Calm     85 % 0 mm 0.0 W/m2 CLR
04:50 -13.4 °C -14.7 °C 34659.1 hPa Calm     85 % 0 mm 0.0 W/m2 CLR
04:55 -13.4 °C -14.6 °C 34659.1 hPa Calm     86 % 0 mm 0.0 W/m2 CLR
05:00 -13.4 °C -14.7 °C 34659.1 hPa Calm     86 % 0 mm 0.0 W/m2 CLR
05:05 -13.5 °C -14.7 °C 34659.1 hPa Calm     86 % 0 mm 0.0 W/m2 CLR
05:10 -13.6 °C -14.8 °C 34659.1 hPa Calm     86 % 0 mm 0.0 W/m2 CLR
05:15 -13.6 °C -14.8 °C 34659.1 hPa Calm     86 % 0 mm 0.0 W/m2 CLR
05:20 -13.7 °C -14.8 °C 34669.3 hPa Calm     87 % 0 mm 0.0 W/m2 CLR
05:25 -13.7 °C -14.8 °C 34669.3 hPa Calm     87 % 0 mm 0.0 W/m2 CLR
05:30 -13.7 °C -14.8 °C 34669.3 hPa Calm     87 % 0 mm 0.0 W/m2 CLR
05:35 -13.7 °C -14.8 °C 34669.3 hPa Calm     87 % 0 mm 0.0 W/m2 CLR
05:40 -13.7 °C -14.8 °C 34669.3 hPa Calm     87 % 0 mm 0.0 W/m2 CLR
05:45 -13.7 °C -14.8 °C 34669.3 hPa Calm     87 % 0 mm 0.0 W/m2 CLR
05:50 -13.7 °C -14.8 °C 34669.3 hPa Calm     87 % 0 mm 0.0 W/m2 CLR
05:55 -13.8 °C -14.9 °C 34669.3 hPa Calm     87 % 0 mm 0.0 W/m2 CLR
06:00 -13.8 °C -14.9 °C 34669.3 hPa Calm     87 % 0 mm 0.0 W/m2 CLR
06:05 -13.9 °C -14.9 °C 34682.8 hPa Calm     88 % 0 mm 0.0 W/m2 CLR
06:10 -13.8 °C -14.9 °C 34682.8 hPa Calm     88 % 0 mm 0.0 W/m2 CLR
06:15 -13.8 °C -14.9 °C 34682.8 hPa Calm     88 % 0 mm 0.0 W/m2 CLR
06:20 -13.8 °C -14.9 °C 34682.8 hPa Calm     88 % 0 mm 0.0 W/m2 CLR
06:25 -13.8 °C -14.8 °C 34682.8 hPa Calm     88 % 0 mm 0.0 W/m2 CLR
06:30 -13.9 °C -14.9 °C 34682.8 hPa Calm     88 % 0 mm 0.0 W/m2 OVC
06:35 -13.9 °C -14.9 °C 34682.8 hPa Calm     88 % 0 mm 0.0 W/m2 OVC
06:40 -14 °C -15 °C 34682.8 hPa Calm     88 % 0 mm 5.0 W/m2 OVC
06:45 -14 °C -15.1 °C 34682.8 hPa Calm     88 % 0 mm 7.0 W/m2 BKN
06:50 -14.1 °C -15.1 °C 34693 hPa Calm     88 % 0 mm 11.0 W/m2 BKN
06:55 -14.1 °C -15.1 °C 34693 hPa Calm     88 % 0 mm 12.0 W/m2 BKN
07:00 -14.1 °C -15.1 °C 34693 hPa Calm     88 % 0 mm 14.0 W/m2 BKN
07:05 -14.1 °C -15.1 °C 34693 hPa Calm     88 % 0 mm 18.0 W/m2 BKN
07:10 -14.1 °C -14.9 °C 34693 hPa Calm     89 % 0 mm 25.0 W/m2 BKN
07:15 -14 °C -14.9 °C 34693 hPa Calm     89 % 0 mm 33.0 W/m2 BKN
07:20 -13.9 °C -14.8 °C 34693 hPa Calm     89 % 0 mm 47.0 W/m2 SCT
07:25 -13.8 °C -14.7 °C 34693 hPa Calm     89 % 0 mm 60.0 W/m2 SCT
07:30 -13.7 °C -14.7 °C 34693 hPa Calm     88 % 0 mm 74.0 W/m2 FEW
07:35 -13.6 °C -14.6 °C 34693 hPa Calm     88 % 0 mm 86.0 W/m2 FEW
07:40 -13.4 °C -14.6 °C 34693 hPa Calm     87 % 0 mm 100.0 W/m2 CLR
07:45 -13.2 °C -14.4 °C 34693 hPa Calm     87 % 0 mm 114.0 W/m2 CLR
07:50 -13 °C -14.3 °C 34693 hPa Calm     86 % 0 mm 128.0 W/m2 CLR
07:55 -12.8 °C -14.1 °C 34693 hPa Calm     85 % 0 mm 148.0 W/m2 CLR
08:00 -12.6 °C -14 °C 34703.1 hPa Calm     84 % 0 mm 163.0 W/m2 CLR
08:05 -12.3 °C -13.9 °C 34703.1 hPa Calm     82 % 0 mm 181.0 W/m2 CLR
08:10 -12.1 °C -13.8 °C 34703.1 hPa Calm     81 % 0 mm 197.0 W/m2 CLR
08:15 -11.8 °C -13.6 °C 34703.1 hPa Calm     80 % 0 mm 216.0 W/m2 CLR
08:20 -11.5 °C -13.4 °C 34703.1 hPa Calm     79 % 0 mm 223.0 W/m2 CLR
08:25 -11.3 °C -13.4 °C 34703.1 hPa Calm     77 % 0 mm 248.0 W/m2 CLR
08:30 -10.9 °C -13.4 °C 34703.1 hPa Calm     75 % 0 mm 262.0 W/m2 CLR
08:35 -10.7 °C -13.3 °C 34703.1 hPa West 7.7 km/h 7.7 km/h 73 % 0 mm 281.0 W/m2 CLR
08:40 -10.5 °C -13.7 °C 34703.1 hPa West 15 km/h 15 km/h 68 % 0 mm 295.0 W/m2 CLR
08:45 -10.3 °C -13.7 °C 34703.1 hPa WNW 10.3 km/h 10.3 km/h 67 % 0 mm 311.0 W/m2 CLR
08:50 -10.3 °C -13.8 °C 34703.1 hPa West 15 km/h 15 km/h 65 % 0 mm 327.0 W/m2 CLR
08:55 -10.2 °C -13.8 °C 34703.1 hPa WNW 12.9 km/h 12.9 km/h 65 % 0 mm 345.0 W/m2 CLR
09:00 -10.1 °C -13.8 °C 34703.1 hPa WSW 15.6 km/h 15.6 km/h 64 % 0 mm 360.0 W/m2 CLR
09:10 -9.9 °C -13.9 °C 34703.1 hPa West 23.8 km/h 23.8 km/h 62 % 0 mm 390.0 W/m2 CLR
09:15 -9.9 °C -13.8 °C 34703.1 hPa WNW 23.3 km/h 23.3 km/h 62 % 0 mm 406.0 W/m2 CLR
09:20 -9.9 °C -13.8 °C 34703.1 hPa WSW 20.9 km/h 20.9 km/h 62 % 0 mm 424.0 W/m2 CLR
09:25 -9.8 °C -13.8 °C 34703.1 hPa WNW 6 km/h   62 % 0 mm 439.0 W/m2 CLR
09:30 -9.6 °C -13.7 °C 34703.1 hPa WSW 17.9 km/h 17.9 km/h 61 % 0 mm 455.0 W/m2 CLR
09:35 -9.5 °C -13.8 °C 34703.1 hPa SSW 11.9 km/h 11.9 km/h 60 % 0 mm 469.0 W/m2 CLR
09:41 -9.4 °C -13.7 °C 34703.1 hPa SW 15 km/h 15 km/h 60 % 0 mm 487.0 W/m2 CLR
09:46 -9.4 °C -13.8 °C 34693 hPa WSW 9 km/h 9 km/h 59 % 0 mm 501.0 W/m2 CLR
09:51 -9.3 °C -13.7 °C 34703.1 hPa WSW 9 km/h 9 km/h 59 % 0 mm 517.0 W/m2 CLR
09:56 -9.2 °C -13.8 °C 34693 hPa WSW 9 km/h 9 km/h 58 % 0 mm 531.0 W/m2 CLR
10:01 -9.1 °C -13.8 °C 34703.1 hPa West 9 km/h   57 % 0 mm 545.0 W/m2 CLR
10:06 -8.9 °C -13.7 °C 34693 hPa West 15.6 km/h 15.6 km/h 57 % 0 mm 563.0 W/m2 CLR
10:11 -8.9 °C -13.8 °C 34693 hPa SW 9 km/h 9 km/h 56 % 0 mm 577.0 W/m2 CLR
10:16 -8.8 °C -13.5 °C 34693 hPa WSW 9 km/h 9 km/h 57 % 0 mm 591.0 W/m2 CLR
10:21 -8.6 °C -13.7 °C 34693 hPa WSW 10.3 km/h 10.3 km/h 55 % 0 mm 591.0 W/m2 CLR
10:26 -8.6 °C -13.8 °C 34693 hPa Calm     54 % 0 mm 621.0 W/m2 CLR
10:31 -8.5 °C -13.8 °C 34703.1 hPa West 15 km/h 15 km/h 53 % 0 mm 633.0 W/m2 CLR
10:36 -8.4 °C -13.5 °C 34693 hPa West 3.1 km/h   55 % 0 mm 613.0 W/m2 CLR
10:41 -8.3 °C -13.7 °C 34693 hPa WNW 10.3 km/h 10.3 km/h 53 % 0 mm 647.0 W/m2 CLR
10:46 -8.2 °C -13.5 °C 34693 hPa NNW 12.9 km/h 12.9 km/h 53 % 0 mm 679.0 W/m2 CLR
10:51 -7.9 °C -13.5 °C 34693 hPa West 29.8 km/h 29.8 km/h 52 % 0 mm 684.0 W/m2 CLR
10:56 -8.1 °C -13.8 °C 34693 hPa West 9 km/h 9 km/h 51 % 0 mm 698.0 W/m2 CLR
11:01 -8 °C -13.7 °C 34693 hPa NW 15.6 km/h 15.6 km/h 51 % 0 mm 715.0 W/m2 CLR
11:06 -7.9 °C -13.5 °C 34693 hPa WNW 15 km/h 15 km/h 52 % 0 mm 728.0 W/m2 CLR
11:11 -7.9 °C -13.7 °C 34693 hPa WSW 17.9 km/h 17.9 km/h 50 % 0 mm 733.0 W/m2 CLR
11:16 -7.8 °C -13.6 °C 34693 hPa NNW 15 km/h 15 km/h 51 % 0 mm 729.0 W/m2 CLR
11:21 -7.7 °C -13.7 °C 34693 hPa North 10.3 km/h 10.3 km/h 50 % 0 mm 780.0 W/m2 CLR
11:26 -7.6 °C -13.3 °C 34693 hPa WNW 15 km/h 15 km/h 51 % 0 mm 640.0 W/m2 CLR
11:31 -7.5 °C -13.6 °C 34693 hPa WNW 9 km/h 9 km/h 49 % 0 mm 814.0 W/m2 CLR
11:36 -7.6 °C -13.6 °C 34693 hPa WSW 18.2 km/h 18.2 km/h 49 % 0 mm 782.0 W/m2 CLR
11:41 -7.5 °C -13.7 °C 34693 hPa Calm     48 % 0 mm 814.0 W/m2 CLR
11:46 -7.4 °C -13.5 °C 34693 hPa WNW 20.9 km/h 20.9 km/h 49 % 0 mm 814.0 W/m2 CLR
11:51 -7.3 °C -13.4 °C 34693 hPa WNW 15.6 km/h 15.6 km/h 49 % 0 mm 840.0 W/m2 CLR
11:56 -7.2 °C -13.4 °C 34693 hPa WNW 9 km/h 9 km/h 48 % 0 mm 671.0 W/m2 CLR
12:01 -7.1 °C -13.3 °C 34693 hPa NW 15 km/h 15 km/h 48 % 0 mm 874.0 W/m2 CLR
12:06 -7.1 °C -13.5 °C 34693 hPa WNW 15 km/h 15 km/h 47 % 0 mm 763.0 W/m2 CLR
12:11 -7.1 °C -13.6 °C 34693 hPa NW 20.9 km/h 20.9 km/h 47 % 0 mm 657.0 W/m2 CLR
12:16 -7.2 °C -13.6 °C 34693 hPa SW 9 km/h 9 km/h 47 % 0 mm 802.0 W/m2 CLR
12:21 -7.1 °C -13.3 °C 34682.8 hPa WNW 15 km/h 15 km/h 48 % 0 mm 896.0 W/m2 CLR
12:26 -6.9 °C -13.9 °C 34693 hPa NNW 11.9 km/h 11.9 km/h 44 % 0 mm 863.0 W/m2 CLR
12:31 -6.9 °C -13.7 °C 34682.8 hPa NW 15 km/h 15 km/h 45 % 0 mm 837.0 W/m2 CLR
12:36 -6.8 °C -13.4 °C 34682.8 hPa NW 20.9 km/h 20.9 km/h 46 % 0 mm 898.0 W/m2 CLR
12:41 -6.7 °C -13.3 °C 34682.8 hPa NW 17.9 km/h 17.9 km/h 46 % 0 mm 921.0 W/m2 CLR
12:46 -6.7 °C -13.7 °C 34682.8 hPa Calm     44 % 0 mm 930.0 W/m2 CLR
12:51 -6.7 °C -13.7 °C 34682.8 hPa SW 3.1 km/h 3.1 km/h 44 % 0 mm 896.0 W/m2 CLR
12:56 -6.5 °C -13.7 °C 34682.8 hPa NW 9 km/h 9 km/h 43 % 0 mm 919.0 W/m2 CLR
13:01 -6.4 °C -13.4 °C 34682.8 hPa NNW 20.9 km/h 20.9 km/h 44 % 0 mm 932.0 W/m2 CLR
13:06 -6.3 °C -13.7 °C 34669.3 hPa North 15.6 km/h 15.6 km/h 42 % 0 mm 939.0 W/m2 CLR
13:11 -6.3 °C -13.9 °C 34669.3 hPa NNW 9 km/h 9 km/h 41 % 0 mm 942.0 W/m2 CLR
13:16 -6.3 °C -13.6 °C 34669.3 hPa West 15 km/h 15 km/h 43 % 0 mm 904.0 W/m2 CLR
13:21 -6.3 °C -13.6 °C 34669.3 hPa NNW 11.9 km/h 11.9 km/h 43 % 0 mm 932.0 W/m2 CLR
13:26 -6.1 °C -13.6 °C 34669.3 hPa Calm     42 % 0 mm 939.0 W/m2 CLR
13:31 -5.9 °C -13.6 °C 34669.3 hPa Calm     41 % 0 mm 912.0 W/m2 CLR
13:36 -5.8 °C -13.2 °C 34659.1 hPa NNW 20.9 km/h 20.9 km/h 42 % 0 mm 967.0 W/m2 CLR
13:41 -5.7 °C -13.6 °C 34659.1 hPa NNW 26.9 km/h 26.9 km/h 40 % 0 mm 907.0 W/m2 CLR
13:46 -5.9 °C -13.7 °C 34659.1 hPa NW 15 km/h 15 km/h 40 % 0 mm 904.0 W/m2 CLR
13:51 -5.9 °C -13.7 °C 34659.1 hPa ENE 9 km/h 9 km/h 40 % 0 mm 967.0 W/m2 CLR
13:56 -5.8 °C -13.5 °C 34659.1 hPa ENE 3.1 km/h 3.1 km/h 41 % 0 mm 951.0 W/m2 CLR
14:01 -5.7 °C -13.8 °C 34659.1 hPa NNE 9 km/h 9 km/h 39 % 0 mm 942.0 W/m2 CLR
14:06 -5.6 °C -13.4 °C 34659.1 hPa NNW 20.9 km/h 20.9 km/h 40 % 0 mm 951.0 W/m2 CLR
14:11 -5.7 °C -13.7 °C 34645.6 hPa North 5.1 km/h 5.1 km/h 39 % 0 mm 949.0 W/m2 CLR
14:16 -5.6 °C -13.5 °C 34645.6 hPa NNE 29.8 km/h 29.8 km/h 40 % 0 mm 949.0 W/m2 CLR
14:21 -5.6 °C -13.5 °C 34645.6 hPa NE 11.9 km/h 11.9 km/h 40 % 0 mm 953.0 W/m2 CLR
14:26 -5.6 °C -13.9 °C 34645.6 hPa North 17.9 km/h 17.9 km/h 38 % 0 mm 940.0 W/m2 CLR
14:31 -5.5 °C -13.7 °C 34645.6 hPa NNW 44.7 km/h 44.7 km/h 39 % 0 mm 932.0 W/m2 CLR
14:36 -5.4 °C -13.6 °C 34645.6 hPa NNW 20.8 km/h 20.8 km/h 39 % 0 mm 939.0 W/m2 CLR
14:41 -5.4 °C -13.9 °C 34645.6 hPa NNE 12.9 km/h 12.9 km/h 37 % 0 mm 939.0 W/m2 CLR
14:46 -5.4 °C -13.7 °C 34645.6 hPa NE 9 km/h 9 km/h 38 % 0 mm 933.0 W/m2 CLR
14:51 -5.4 °C -13.9 °C 34645.6 hPa Calm     37 % 0 mm 930.0 W/m2 CLR
14:56 -5.1 °C -13.7 °C 34635.4 hPa NNE 12.9 km/h 12.9 km/h 37 % 0 mm 919.0 W/m2 CLR
15:01 -5.1 °C -13.9 °C 34635.4 hPa North 29.8 km/h 29.8 km/h 36 % 0 mm 921.0 W/m2 CLR
15:06 -4.9 °C -13.8 °C 34635.4 hPa WNW 20.9 km/h 20.9 km/h 36 % 0 mm 904.0 W/m2 CLR
15:11 -4.9 °C -14 °C 34635.4 hPa North 15.6 km/h 15.6 km/h 35 % 0 mm 912.0 W/m2 CLR
15:16 -4.9 °C -13.7 °C 34625.2 hPa NNE 23.8 km/h 23.8 km/h 36 % 0 mm 905.0 W/m2 CLR
15:21 -4.8 °C -13.7 °C 34625.2 hPa North 38.8 km/h 38.8 km/h 36 % 0 mm 904.0 W/m2 CLR
15:26 -5 °C -14.1 °C 34625.2 hPa North 29.8 km/h 29.8 km/h 35 % 0 mm 888.0 W/m2 CLR
15:31 -5.1 °C -13.9 °C 34625.2 hPa NNW 6 km/h 6 km/h 36 % 0 mm 881.0 W/m2 CLR
15:36 -5.1 °C -13.9 °C 34625.2 hPa NNE 3.1 km/h   36 % 0 mm 874.0 W/m2 CLR
15:41 -4.8 °C -14.1 °C 34625.2 hPa ENE 17.9 km/h 17.9 km/h 34 % 0 mm 868.0 W/m2 CLR
15:47 -4.9 °C -13.7 °C 34625.2 hPa NW 11.9 km/h 14 km/h 36 % 0 mm 858.0 W/m2 CLR
15:52 -4.8 °C -13.6 °C 34625.2 hPa ENE 15.6 km/h 15.6 km/h 36 % 0 mm 851.0 W/m2 CLR
15:57 -4.7 °C -13.8 °C 34625.2 hPa North 18.2 km/h 18.2 km/h 35 % 0 mm 847.0 W/m2 CLR
16:02 -4.8 °C -13.8 °C 34625.2 hPa NW 15.6 km/h 15.6 km/h 35 % 0 mm 835.0 W/m2 CLR
16:07 -4.8 °C -14.1 °C 34625.2 hPa NNW 26.9 km/h 26.9 km/h 34 % 0 mm 823.0 W/m2 CLR
16:12 -4.8 °C -13.6 °C 34611.7 hPa WNW 9 km/h 9 km/h 36 % 0 mm 823.0 W/m2 CLR
16:17 -4.6 °C -13.7 °C 34611.7 hPa WNW 15 km/h 15 km/h 35 % 0 mm 814.0 W/m2 CLR
16:22 -4.6 °C -13.4 °C 34611.7 hPa North 20.9 km/h 20.9 km/h 36 % 0 mm 770.0 W/m2 CLR
16:27 -4.5 °C -13.6 °C 34611.7 hPa NNW 26.9 km/h 26.9 km/h 35 % 0 mm 777.0 W/m2 CLR
16:32 -4.6 °C -13.7 °C 34611.7 hPa North 18.2 km/h 18.2 km/h 35 % 0 mm 751.0 W/m2 CLR
16:37 -4.4 °C -13.8 °C 34611.7 hPa North 9 km/h   34 % 0 mm 775.0 W/m2 CLR
16:42 -4.4 °C -13.6 °C 34601.5 hPa NNW 9 km/h 9 km/h 35 % 0 mm 677.0 W/m2 CLR
16:47 -4.5 °C -13.8 °C 34601.5 hPa NNW 29.8 km/h 29.8 km/h 34 % 0 mm 728.0 W/m2 CLR
16:52 -4.6 °C -13.9 °C 34601.5 hPa North 29.8 km/h 29.8 km/h 34 % 0 mm 712.0 W/m2 CLR
16:57 -4.6 °C -13.7 °C 34601.5 hPa North 26.9 km/h 26.9 km/h 35 % 0 mm 696.0 W/m2 CLR
17:02 -4.6 °C -13.9 °C 34601.5 hPa Calm     34 % 0 mm 684.0 W/m2 CLR
17:07 -4.5 °C -13.8 °C 34601.5 hPa NNW 29.8 km/h 29.8 km/h 34 % 0 mm 673.0 W/m2 CLR
17:12 -4.5 °C -13.6 °C 34601.5 hPa NW 3.1 km/h   35 % 0 mm 643.0 W/m2 CLR
17:17 -4.3 °C -13.7 °C 34601.5 hPa NE 26.9 km/h 26.9 km/h 34 % 0 mm 643.0 W/m2 CLR
17:22 -4.3 °C -13.9 °C 34591.4 hPa Calm     33 % 0 mm 573.0 W/m2 CLR
17:27 -4.3 °C -13.7 °C 34591.4 hPa Calm   2.6 km/h 34 % 0 mm 643.0 W/m2 CLR
17:32 -4.2 °C -13.8 °C 34591.4 hPa NNW 9 km/h 9 km/h 33 % 0 mm 622.0 W/m2 CLR
17:37 -4.1 °C -13.7 °C 34591.4 hPa NNW 23.8 km/h 23.8 km/h 33 % 0 mm 617.0 W/m2 CLR
17:42 -4.1 °C -14 °C 34591.4 hPa NNE 35.7 km/h 35.7 km/h 32 % 0 mm 575.0 W/m2 CLR
17:47 -4.2 °C -14.1 °C 34591.4 hPa North 26.9 km/h 26.9 km/h 32 % 0 mm 592.0 W/m2 CLR
17:52 -4.3 °C -14.2 °C 34591.4 hPa NNE 23.8 km/h 23.8 km/h 32 % 0 mm 554.0 W/m2 CLR
17:57 -4.3 °C -14.2 °C 34591.4 hPa North 9 km/h 9 km/h 32 % 0 mm 554.0 W/m2 CLR
18:02 -4.2 °C -14.3 °C 34591.4 hPa North 6 km/h 6 km/h 31 % 0 mm 547.0 W/m2 CLR
18:07 -4.1 °C -14.3 °C 34591.4 hPa NNW 15 km/h 15 km/h 31 % 0 mm 533.0 W/m2 CLR
18:12 -4.1 °C -14 °C 34591.4 hPa Calm     32 % 0 mm 489.0 W/m2 CLR
18:17 -3.9 °C -14.1 °C 34591.4 hPa NNW 9 km/h 9 km/h 31 % 0 mm 483.0 W/m2 CLR
18:22 -4 °C -14.1 °C 34591.4 hPa Calm     31 % 0 mm 480.0 W/m2 CLR
18:27 -4.1 °C -14.5 °C 34591.4 hPa North 35.7 km/h 35.7 km/h 30 % 0 mm 464.0 W/m2 CLR
18:32 -4.1 °C -14.6 °C 34591.4 hPa WNW 29.8 km/h 29.8 km/h 30 % 0 mm 438.0 W/m2 CLR
18:37 -4.2 °C -14.6 °C 34577.8 hPa North 9 km/h 9 km/h 30 % 0 mm 425.0 W/m2 CLR
18:42 -4.1 °C -14 °C 34577.8 hPa NNE 6 km/h 6 km/h 32 % 0 mm 411.0 W/m2 CLR
18:47 -3.9 °C -14.4 °C 34577.8 hPa North 9 km/h 9 km/h 30 % 0 mm 397.0 W/m2 CLR
18:52 -3.9 °C -14.4 °C 34577.8 hPa WNW 20.9 km/h 20.9 km/h 30 % 0 mm 380.0 W/m2 CLR
18:57 -4 °C -14.4 °C 34577.8 hPa North 11.9 km/h 11.9 km/h 30 % 0 mm 367.0 W/m2 CLR
19:02 -4 °C -14.4 °C 34577.8 hPa Calm     30 % 0 mm 350.0 W/m2 CLR
19:07 -3.9 °C -14.4 °C 34577.8 hPa North 15 km/h 15 km/h 30 % 0 mm 338.0 W/m2 CLR
19:12 -3.9 °C -14.4 °C 34577.8 hPa Calm     30 % 0 mm 318.0 W/m2 CLR
19:17 -4 °C -14.4 °C 34577.8 hPa NW 6 km/h   30 % 0 mm 306.0 W/m2 CLR
19:18 -4 °C -14.4 °C 34577.8 hPa Calm     30 % 0 mm 301.0 W/m2 CLR
19:23 -4 °C -14.1 °C 34577.8 hPa NNW 9 km/h 9 km/h 31 % 0 mm 283.0 W/m2 CLR
19:28 -4 °C -14.4 °C 34577.8 hPa Calm     30 % 0 mm 262.0 W/m2 CLR
19:33 -4 °C -14.1 °C 34577.8 hPa North 9 km/h 9 km/h 31 % 0 mm 244.0 W/m2 CLR
19:38 -4 °C -14.4 °C 34577.8 hPa Calm     30 % 0 mm 227.0 W/m2 CLR
19:43 -4 °C -14.4 °C 34577.8 hPa Calm     30 % 0 mm 188.0 W/m2 CLR
19:48 -3.9 °C -14.3 °C 34577.8 hPa Calm     30 % 0 mm 190.0 W/m2 CLR
19:53 -3.7 °C -14.1 °C 34577.8 hPa Calm     30 % 0 mm 158.0 W/m2 CLR
19:58 -3.7 °C -14.2 °C 34577.8 hPa NNE 3.1 km/h   30 % 0 mm 153.0 W/m2 CLR
20:03 -3.9 °C -14.4 °C 34591.4 hPa Calm     30 % 0 mm 113.0 W/m2 CLR
20:08 -4.1 °C -14.3 °C 34591.4 hPa Calm     31 % 0 mm 121.0 W/m2 CLR
20:13 -4.1 °C -14 °C 34591.4 hPa Calm     32 % 0 mm 97.0 W/m2 CLR
20:18 -4.2 °C -14.1 °C 34591.4 hPa Calm     32 % 0 mm 97.0 W/m2 CLR
20:23 -4.2 °C -14.1 °C 34591.4 hPa Calm     32 % 0 mm 79.0 W/m2 FEW
20:28 -4.3 °C -13.9 °C 34591.4 hPa Calm     33 % 0 mm 51.0 W/m2 SCT
20:33 -4.4 °C -14.3 °C 34591.4 hPa Calm     32 % 0 mm 37.0 W/m2 BKN
20:34 -4.4 °C -14 °C 34591.4 hPa Calm     33 % 0 mm 37.0 W/m2 BKN
20:39 -4.6 °C -13.9 °C 34601.5 hPa Calm     34 % 0 mm 40.0 W/m2 BKN
20:44 -4.6 °C -13.9 °C 34601.5 hPa Calm     34 % 0 mm 28.0 W/m2 BKN
20:49 -4.8 °C -14.1 °C 34601.5 hPa Calm     34 % 0 mm 19.0 W/m2 BKN
20:54 -4.9 °C -14 °C 34601.5 hPa Calm     35 % 0 mm 16.0 W/m2 BKN
20:59 -5.2 °C -14 °C 34601.5 hPa Calm     36 % 0 mm 11.0 W/m2 BKN
21:04 -5.4 °C -14 °C 34601.5 hPa Calm     37 % 0 mm 9.0 W/m2 BKN
21:09 -5.6 °C -14.1 °C 34601.5 hPa Calm     37 % 0 mm 5.0 W/m2 BKN
21:14 -5.7 °C -14.2 °C 34601.5 hPa Calm     37 % 0 mm 0.0 W/m2 OVC
21:19 -5.8 °C -14.1 °C 34601.5 hPa Calm     38 % 0 mm 0.0 W/m2 OVC
21:24 -5.9 °C -13.8 °C 34601.5 hPa Calm     40 % 0 mm 0.0 W/m2 OVC
21:29 -6.2 °C -13.8 °C 34601.5 hPa Calm     41 % 0 mm 0.0 W/m2 CLR
21:34 -6.3 °C -13.8 °C 34601.5 hPa Calm     42 % 0 mm 0.0 W/m2 CLR
21:39 -6.4 °C -13.7 °C 34601.5 hPa Calm     43 % 0 mm 0.0 W/m2 CLR
21:44 -6.6 °C -13.2 °C 34601.5 hPa Calm     46 % 0 mm 0.0 W/m2 CLR
21:49 -6.7 °C -13.2 °C 34601.5 hPa Calm     47 % 0 mm 0.0 W/m2 CLR
21:54 -6.9 °C -13.1 °C 34611.7 hPa Calm     49 % 0 mm 0.0 W/m2 CLR
21:59 -7.3 °C -13 °C 34611.7 hPa Calm     51 % 0 mm 0.0 W/m2 CLR
22:04 -7.6 °C -13.2 °C 34611.7 hPa Calm     52 % 0 mm 0.0 W/m2 CLR
22:09 -7.8 °C -13.2 °C 34611.7 hPa Calm     53 % 0 mm 0.0 W/m2 CLR
22:14 -8 °C -13.3 °C 34625.2 hPa Calm     54 % 0 mm 0.0 W/m2 CLR
22:19 -8.2 °C -13.3 °C 34625.2 hPa Calm     55 % 0 mm 0.0 W/m2 CLR
22:24 -8.3 °C -13.2 °C 34625.2 hPa Calm     56 % 0 mm 0.0 W/m2 CLR
22:29 -8.4 °C -13.2 °C 34625.2 hPa Calm     57 % 0 mm 0.0 W/m2 CLR
22:34 -8.6 °C -13.2 °C 34625.2 hPa Calm     58 % 0 mm 0.0 W/m2 CLR
22:39 -8.7 °C -13.3 °C 34625.2 hPa Calm     58 % 0 mm 0.0 W/m2 CLR
22:44 -8.8 °C -13.1 °C 34625.2 hPa Calm     60 % 0 mm 0.0 W/m2 CLR
22:49 -8.9 °C -13.3 °C 34625.2 hPa Calm     60 % 0 mm 0.0 W/m2 CLR
22:54 -9.1 °C -13.2 °C 34625.2 hPa Calm     62 % 0 mm 0.0 W/m2 CLR
22:59 -9.3 °C -13.2 °C 34625.2 hPa Calm     63 % 0 mm 0.0 W/m2 CLR
23:04 -9.5 °C -13.3 °C 34625.2 hPa Calm     64 % 0 mm 0.0 W/m2 CLR
23:09 -9.6 °C -13.3 °C 34625.2 hPa Calm     64 % 0 mm 0.0 W/m2 CLR
23:14 -9.6 °C -13.2 °C 34635.4 hPa Calm     65 % 0 mm 0.0 W/m2 CLR
23:19 -9.7 °C -13.3 °C 34635.4 hPa Calm     65 % 0 mm 0.0 W/m2 CLR
23:24 -9.8 °C -13.4 °C 34635.4 hPa Calm     65 % 0 mm 0.0 W/m2 CLR
23:29 -9.8 °C -13.3 °C 34635.4 hPa Calm     66 % 0 mm 0.0 W/m2 CLR
23:35 -9.9 °C -13.3 °C 34635.4 hPa Calm     67 % 0 mm 0.0 W/m2 CLR
23:40 -9.9 °C -13.3 °C 34635.4 hPa Calm     67 % 0 mm 0.0 W/m2 CLR
23:45 -10.1 °C -13.5 °C 34635.4 hPa Calm     66 % 0 mm 0.0 W/m2 CLR
23:50 -10.1 °C -13.5 °C 34635.4 hPa Calm     66 % 0 mm 0.0 W/m2 CLR
23:55 -10.1 °C -13.4 °C 34635.4 hPa Calm     67 % 0 mm 0.0 W/m2 CLR
Lo Temps de Massalio
Compliments of Weather Underground - 1.25 mb